sat.trackr.live / text

‹ back to catalog

STARLINK-32229

NORAD 60436 · 2024-144M

PAYLOAD ACTIVE UNKNOWN

§ Identity

Operator
Country
US
Launch date
2024-08-12
Launch site
AFETR
Launch vehicle
Mass (kg)
RCS (m²)

Purposes: comms

External: N2YO · Heavens-Above · Gunter

§ Orbital elements

Epoch: 2026-05-25T04:16:50.989152Z

Period
93.85 min
Inclination
53.1600°
Eccentricity
0.0000882
Mean motion
15.34391507 rev/d
Perigee alt
462.1 km
Apogee alt
463.3 km
Semi-major
6,840.9 km
B*
5.2610e-5
RAAN
220.8770°
Arg perigee
101.8533°
Mean anomaly
258.2569°
Rev number
10,103

§ Raw data

STARLINK-322291 60436U 24144M   26145.17836793  .00001401  00000+0  52610-4 0  99992 60436  53.1600 220.8770 0000882 101.8533 258.2569 15.34391507101031

JSON: /api/v1/satellites/60436 · /tle

For live sub-satellite position, see the globe view (requires WebGL).

§ Visibility from observer

Set your observer location to see the next 7 days of passes ≥ 10°. The values pass through the URL so the page stays shareable.

No JS? Fill the form by hand. The geolocation button needs JavaScript.